Vertical_Velocity
-1 -3 -1 -1 2 0 0 -0 -2 -2 -1 -1 -2 -2 -2 -2 0 -0 -3 2 8 3
-0 5 -1 0 2 1 -3 -3 -7 -3 -1 -1 -1 -2 -1 -2 1 2 2 6 7 1
4 3 -5 -2 -1 0 -0 -5 -2 -1 -2 -2 -2 -2 -4 -3 -2 2 7 8 4 -5
4 -7 -0 -0 -0 -3 -2 -1 -0 -1 -2 -4 -7 -7 -4 -1 -2 -1 7 9 -2 -1
-2 -2 -3 -2 -1 -5 -2 -2 -4 -4 -5 -5 -4 -4 0 -6 -4 -1 6 8 0 1
-0 -2 -2 -2 -5 -2 -3 -3 -2 -0 -0 1 1 -2 -3 -4 -3 -1 -3 1 0 -1
2 3 0 -1 -1 -0 -1 -1 -1 1 1 -2 -4 1 -1 2 -3 -6 -2 1 -0 -1
-1 3 -1 -1 -0 -1 -1 0 -0 -1 -2 -4 -1 0 -1 4 -3 -6 -2 0 0 -2
0 0 1 1 1 3 1 -1 -0 2 -2 -2 1 -3 -5 3 0 -4 -1 -0 1 -0
3 0 -0 0 -1 0 2 0 -0 -2 -3 1 -6 7 -2 -0 1 -2 -1 0 1 -0
3 1 1 -3 -1 -1 -4 -4 -7 -0 -1 -1 -9 4 -5 -0 -1 -0 -1 0 -0 -1
3 3 -3 -0 -1 -0 -1 0 -1 5 1 2 -13 7 -3 -1 -3 -1 0 -0 -3 1
-0 -6 1 1 0 -2 -1 -0 -5 -1 -2 -3 -2 2 -1 -1 -3 -2 1 2 -1 -10
-5 -0 4 2 -2 -1 0 2 3 5 1 -3 0 -10 4 2 -2 -1 1 1 0 1
Height
3121 3119 3115 3112 3110 3106 3102 3097 3091 3085 3079 3074 3068 3062 3056 3050 3045 3042 3039 3034 3031 3027
3115 3112 3108 3105 3102 3097 3093 3088 3080 3075 3070 3065 3060 3054 3046 3043 3039 3034 3031 3027 3024 3021
3107 3103 3100 3097 3093 3090 3085 3077 3072 3067 3062 3057 3050 3045 3040 3035 3032 3029 3025 3020 3018 3015
3098 3095 3092 3088 3085 3081 3074 3069 3064 3059 3053 3046 3040 3035 3032 3028 3024 3022 3018 3015 3010 3007
3093 3088 3084 3081 3077 3070 3066 3061 3056 3050 3043 3037 3032 3025 3021 3017 3015 3013 3010 3007 3003 2999
3083 3080 3077 3074 3068 3063 3058 3053 3046 3041 3035 3029 3024 3018 3013 3009 3006 3005 3003 2999 2995 2990
3075 3073 3069 3065 3060 3055 3050 3044 3039 3033 3027 3022 3016 3012 3007 3001 2998 2997 2995 2991 2986 2983
3068 3065 3061 3057 3052 3047 3042 3036 3031 3025 3020 3014 3008 3006 3001 2996 2992 2989 2987 2983 2980 2975
3060 3058 3053 3049 3045 3040 3034 3029 3024 3018 3012 3007 3002 2999 2994 2991 2986 2983 2980 2977 2973 2969
3052 3049 3045 3042 3037 3032 3027 3021 3015 3010 3005 3001 2995 2993 2988 2984 2981 2977 2974 2971 2967 2963
3044 3041 3037 3033 3029 3023 3018 3012 3008 3003 2998 2995 2989 2987 2982 2979 2975 2972 2968 2965 2961 2957
3036 3032 3028 3025 3020 3015 3010 3005 3000 2996 2991 2987 2982 2981 2978 2973 2970 2967 2964 2960 2956 2952
3028 3024 3022 3017 3011 3006 3002 2997 2991 2988 2985 2981 2977 2975 2972 2967 2964 2961 2958 2955 2951 2946
3020 3018 3013 3008 3003 2999 2994 2989 2986 2982 2978 2975 2971 2968 2966 2962 2959 2956 2953 2950 2946 2942